TimeCDT,TemperatureF,Dew PointF,Humidity,Sea Level PressureIn,VisibilityMPH,Wind Direction,Wind SpeedMPH,Gust SpeedMPH,PrecipitationIn,Events,Conditions,WindDirDegrees,DateUTC
12:15 AM,44.6,35.1,69,30.21,10.0,NNW,4.6,-,N/A,,Overcast,340,2012-10-07 05:15:00
12:35 AM,44.2,35.6,72,30.21,10.0,NW,5.8,-,N/A,,Overcast,320,2012-10-07 05:35:00
12:55 AM,44.1,35.6,72,30.21,10.0,NW,6.9,-,N/A,,Overcast,320,2012-10-07 05:55:00
1:15 AM,44.1,35.6,72,30.22,10.0,NW,6.9,-,N/A,,Overcast,320,2012-10-07 06:15:00
1:35 AM,43.9,35.4,72,30.22,10.0,NNW,5.8,-,N/A,,Overcast,330,2012-10-07 06:35:00
1:55 AM,43.7,35.6,73,30.22,10.0,NW,5.8,-,N/A,,Overcast,320,2012-10-07 06:55:00
2:15 AM,43.7,35.2,72,30.22,10.0,NW,6.9,-,N/A,,Overcast,320,2012-10-07 07:15:00
2:35 AM,43.7,35.4,73,30.22,10.0,NW,5.8,-,N/A,,Overcast,310,2012-10-07 07:35:00
2:55 AM,43.3,35.8,75,30.22,10.0,NW,5.8,-,N/A,,Overcast,310,2012-10-07 07:55:00
3:15 AM,43.2,35.6,75,30.22,10.0,NNW,5.8,-,N/A,,Overcast,330,2012-10-07 08:15:00
3:35 AM,43.0,35.8,76,30.21,10.0,NNW,4.6,-,N/A,,Overcast,330,2012-10-07 08:35:00
3:55 AM,42.8,35.8,76,30.21,10.0,NW,4.6,-,N/A,,Overcast,310,2012-10-07 08:55:00
4:15 AM,42.8,36.0,77,30.22,10.0,NW,4.6,-,N/A,,Overcast,310,2012-10-07 09:15:00
4:35 AM,42.8,36.1,77,30.21,10.0,NW,3.5,-,N/A,,Overcast,320,2012-10-07 09:35:00
4:55 AM,42.4,36.1,78,30.21,10.0,NW,4.6,-,N/A,,Mostly Cloudy,320,2012-10-07 09:55:00
5:15 AM,42.3,36.1,79,30.21,10.0,NW,4.6,-,N/A,,Mostly Cloudy,320,2012-10-07 10:15:00
5:35 AM,42.3,36.5,80,30.21,10.0,NW,3.5,-,N/A,,Overcast,310,2012-10-07 10:35:00
5:55 AM,42.1,36.9,82,30.22,10.0,WNW,4.6,-,N/A,,Overcast,300,2012-10-07 10:55:00
6:15 AM,41.9,36.5,81,30.22,10.0,NW,4.6,-,N/A,,Mostly Cloudy,310,2012-10-07 11:15:00
6:35 AM,41.7,36.5,82,30.22,10.0,WNW,5.8,-,N/A,,Mostly Cloudy,290,2012-10-07 11:35:00
6:55 AM,41.4,36.7,83,30.23,10.0,West,4.6,-,N/A,,Scattered Clouds,280,2012-10-07 11:55:00
7:15 AM,41.4,36.5,83,30.24,10.0,West,4.6,-,N/A,,Mostly Cloudy,280,2012-10-07 12:15:00
7:35 AM,40.8,36.7,85,30.24,10.0,West,5.8,-,N/A,,Scattered Clouds,280,2012-10-07 12:35:00
7:55 AM,42.4,37.2,82,30.24,10.0,West,5.8,-,N/A,,Scattered Clouds,280,2012-10-07 12:55:00
8:15 AM,43.0,37.0,80,30.25,10.0,WNW,9.2,-,N/A,,Scattered Clouds,300,2012-10-07 13:15:00
8:35 AM,44.1,36.7,75,30.25,10.0,NW,4.6,-,N/A,,Clear,310,2012-10-07 13:35:00
8:55 AM,45.1,36.3,71,30.25,10.0,NW,5.8,-,N/A,,Clear,310,2012-10-07 13:55:00
9:15 AM,45.9,35.6,67,30.25,10.0,NW,5.8,-,N/A,,Clear,310,2012-10-07 14:15:00
9:35 AM,47.1,35.1,63,30.26,10.0,NNW,10.4,17.3,N/A,,Clear,330,2012-10-07 14:35:00
9:55 AM,48.6,35.2,60,30.26,10.0,NNW,13.8,-,N/A,,Clear,330,2012-10-07 14:55:00
10:15 AM,48.7,34.0,57,30.25,10.0,West,9.2,20.7,N/A,,Clear,280,2012-10-07 15:15:00
10:35 AM,49.3,33.1,54,30.25,10.0,NW,6.9,-,N/A,,Scattered Clouds,320,2012-10-07 15:35:00
10:55 AM,50.2,33.1,52,30.26,10.0,NNW,9.2,-,N/A,,Scattered Clouds,330,2012-10-07 15:55:00
11:15 AM,50.4,32.5,50,30.26,10.0,West,10.4,-,N/A,,Mostly Cloudy,280,2012-10-07 16:15:00
11:35 AM,51.4,32.2,48,30.26,10.0,NW,5.8,-,N/A,,Mostly Cloudy,310,2012-10-07 16:35:00
11:55 AM,50.7,32.0,49,30.26,10.0,WNW,11.5,-,N/A,,Mostly Cloudy,290,2012-10-07 16:55:00
12:15 PM,50.9,32.2,49,30.26,10.0,WNW,11.5,16.1,N/A,,Scattered Clouds,290,2012-10-07 17:15:00
12:35 PM,52.9,33.3,47,30.25,10.0,WNW,9.2,-,N/A,,Scattered Clouds,300,2012-10-07 17:35:00
12:55 PM,50.4,32.0,49,30.25,10.0,NNW,5.8,-,N/A,,Mostly Cloudy,330,2012-10-07 17:55:00
1:15 PM,52.9,32.7,46,30.24,10.0,WNW,8.1,-,N/A,,Mostly Cloudy,290,2012-10-07 18:15:00
1:35 PM,54.0,32.9,45,30.23,10.0,WNW,5.8,17.3,N/A,,Scattered Clouds,300,2012-10-07 18:35:00
1:55 PM,52.0,31.3,45,30.22,10.0,WNW,9.2,-,N/A,,Clear,290,2012-10-07 18:55:00
2:15 PM,53.8,32.7,45,30.22,10.0,NW,8.1,-,N/A,,Scattered Clouds,320,2012-10-07 19:15:00
2:35 PM,54.0,32.7,45,30.21,10.0,NW,9.2,-,N/A,,Scattered Clouds,310,2012-10-07 19:35:00
2:55 PM,53.6,33.1,46,30.21,10.0,NW,8.1,-,N/A,,Scattered Clouds,310,2012-10-07 19:55:00
3:15 PM,54.3,32.5,44,30.21,10.0,NW,6.9,-,N/A,,Scattered Clouds,320,2012-10-07 20:15:00
3:35 PM,53.6,31.3,43,30.21,10.0,WNW,10.4,-,N/A,,Scattered Clouds,300,2012-10-07 20:35:00
3:55 PM,54.0,31.6,43,30.20,10.0,WNW,6.9,-,N/A,,Scattered Clouds,300,2012-10-07 20:55:00
4:15 PM,53.6,31.3,43,30.20,10.0,NW,6.9,-,N/A,,Clear,310,2012-10-07 21:15:00
4:35 PM,53.8,31.3,42,30.19,10.0,NW,4.6,-,N/A,,Clear,320,2012-10-07 21:35:00
4:55 PM,53.6,31.6,43,30.19,10.0,NNE,4.6,-,N/A,,Clear,20,2012-10-07 21:55:00
5:15 PM,53.1,30.7,43,30.19,10.0,NNW,3.5,-,N/A,,Clear,330,2012-10-07 22:15:00
5:35 PM,51.1,31.5,47,30.19,10.0,WNW,4.6,-,N/A,,Clear,300,2012-10-07 22:35:00
5:55 PM,50.5,31.8,49,30.20,10.0,NW,4.6,-,N/A,,Clear,320,2012-10-07 22:55:00
6:15 PM,49.6,32.7,52,30.20,10.0,Calm,Calm,-,N/A,,Clear,0,2012-10-07 23:15:00
6:35 PM,50.0,32.0,50,30.19,10.0,Calm,Calm,-,N/A,,Clear,0,2012-10-07 23:35:00
7:14 PM,44.6,37.4,76,30.20,10.0,Calm,Calm,-,N/A,,Clear,0,2012-10-08 00:14:00
7:54 PM,42.8,39.2,87,30.21,10.0,Calm,Calm,-,N/A,,Clear,0,2012-10-08 00:54:00
8:14 PM,42.8,39.2,87,30.22,10.0,Calm,Calm,-,N/A,,Clear,0,2012-10-08 01:14:00
9:14 PM,42.8,39.2,87,30.22,10.0,Calm,Calm,-,N/A,,Clear,0,2012-10-08 02:14:00
9:34 PM,41.0,37.4,87,30.22,10.0,Calm,Calm,-,N/A,,Clear,0,2012-10-08 02:34:00
9:54 PM,42.8,37.4,81,30.22,10.0,Calm,Calm,-,N/A,,Clear,0,2012-10-08 02:54:00
10:14 PM,42.8,37.4,81,30.22,10.0,Calm,Calm,-,N/A,,Clear,0,2012-10-08 03:14:00
10:34 PM,39.2,37.4,93,30.22,10.0,Calm,Calm,-,N/A,,Clear,0,2012-10-08 03:34:00
10:54 PM,41.0,39.2,93,30.22,10.0,Calm,Calm,-,N/A,,Clear,0,2012-10-08 03:54:00
11:34 PM,39.2,37.4,93,30.21,10.0,Calm,Calm,-,N/A,,Clear,0,2012-10-08 04:34:00
11:54 PM,39.2,37.4,93,30.20,10.0,Calm,Calm,-,N/A,,Clear,0,2012-10-08 04:54:00